Kosmos-1420

operational
NORAD ID: 13648 Int'l Des: 1982-109 Owner: GUKOS Country: SU
LEOCIRCULAR

About Kosmos-1420

Description loading...

Live Position

Loading 3D Globe...

Upcoming Passes

Altitude History

Altitude vs Time

uPlot chart will show altitude changes over time

Two-Line Element Set

1 13648U 82109A 26062.27773341 .00000198 00000-0 79053-4 0 9998
2 13648 73.9956 16.6657 0019304 154.7471 205.4629 14.34763792264398
Epoch: Mar 3, 2026 • Age: 40 hours

Current Status

Altitude 791.4 km
Velocity 7.45 km/s
Sub-Earth Point -3.16°S, 31.01°W
Launch Date Nov 11, 1982
Age 43.3 years
Type other

Technical Details

Classification Payload
Mass 800.00 kg
Dry Mass 800.00 kg
Total Mass 800.00 kg
Length 3.00 m
Diameter 2.00 m
Span 3.00 m
Shape Cyl
Manufacturer NPOPM
Bus Type Strela-2M
Phase Status In Orbit
Owner/State GUKOS/SU

Large Constellations

Loading constellations...